カタログに戻る

IRIDIUM 33 DEB

運用中PO
NORAD 33886·DEBRIS·🇺🇸 United States

打ち上げ Sep 14, 1997 から Baikonur Cosmodrome

Loading…

次のパス (今後24時間)

TLE

最新Source: Space-Track

元期: Sep 14, 2026, 14:09 UTC

1 33886U 97051BF  26257.58973560  .00000300  00000-0  95593-4 0  9993
2 33886  86.3833 311.1230 0015983  68.3406  96.4053 14.36318717920116

AllMySatでIRIDIUM 33 DEBをリアルタイム追跡

Download on the App Store